Location: Newark
(42.7133°N, 87.7910°W)
Time: 20:27:52
(UTC+00:00)

Vanguard 1 - Pass Details

Date: 21 October 2019
Orbit: 652 x 3831 km, 34.2° (Epoch: 11 November)

Event Time Altitude Azimuth Distance (km) Brightness Sun altitude
Rises 00:57:26 0° 240° (WSW) 3,914 14.0 -22.1°
Reaches altitude 10° 00:59:43 10° 234° (SW) 3,219 13.3 -22.5°
Maximum altitude 01:07:40 50° 161° (SSE) 2,217 11.6 -23.9°
Enters shadow 01:12:53 35° 111° (ESE) 3,192 12.1 -24.9°
